Content
SEND FEEDBACK

Daily
Averages
Monthly
Summary
United States of America

ST. LOUIS - GATEWAY ARCH, MISSOURI


Home > North America > United States > Missouri
Elevation: 450 feet     Latitude: 38 37N     Longitude: 090 11W

WEATHER
 
SELECT A DAY
Number of Records: 189,867;   Date Range: 1/1/95 - 11/21/14
 
SHARE

PRINT THIS DATA

[ ← Previous Day ]
WEATHER ALMANAC - FEBRUARY 10, 2013
[ Next Day → ]
[ °C ]   °F
Weather ElementAverageHighLow
Temperature47.7 °F55.9 °F (4:53 pm)39 °F (1:53 am)
Dewpoint41.6 °F51.8 °F (4:41 pm)28.9 °F (9:53 pm)
Humidity81.2 %94 % (2:21 pm)38 % (8:53 pm)
Barometer29.75 in29.99 in (1:53 am)29.61 in (3:01 pm)
Wind Speed11.7 mph20.7 mph (11:53 pm)
Wind Gust39.1 mph (11:53 pm)
Weather ElementAverage
Visibility7.6 mi
Wind DirectionSSE (162.4 °)

Weather ElementTotal
Precipitation0.85 in
Heating Degree Days17.6 (Base 65)
Averaged from 38 records on February 10, 2013
WEATHER CONDITIONS BREAKOUT
WIND DIRECTION BREAKOUT
WEATHER BY HOUR - FEBRUARY 10, 2013
[ °C ]   °F
Local TimeTemperatureDewpointHumidityBarometerVisibilityWind DirectionWind SpeedGust SpeedPrecipitationEventsConditions
1:53 AM39.0 °F36.0 °F89 %29.99 in6.0 miSE (140°)13.8 mph0.04 inRainLight Rain
2:53 AM39.0 °F36.0 °F89 %29.95 in8.0 miSE (140°)9.2 mph0.01 inOvercast
3:53 AM39.9 °F36.0 °F86 %29.92 in7.0 miSE (140°)9.2 mph0.02 inRainLight Rain
4:53 AM41.0 °F37.0 °F86 %29.88 in10.0 miSE (130°)11.5 mph0.00 inRainLight Rain
5:27 AM42.8 °F37.4 °F81 %29.85 in10.0 miSE (140°)10.4 mph17.3 mph0.00 inRainLight Rain
5:37 AM42.8 °F37.4 °F81 %29.85 in10.0 miSE (140°)12.7 mph19.6 mph0.00 inOvercast
5:53 AM43.0 °F37.0 °F80 %29.86 in10.0 miSSE (150°)9.2 mph18.4 mph0.00 inOvercast
6:04 AM42.8 °F37.4 °F81 %29.85 in10.0 miSSE (150°)10.4 mphOvercast
6:53 AM42.1 °F39.0 °F89 %29.84 in7.0 miSE (140°)10.4 mph0.05 inRainLight Rain
7:50 AM42.8 °F39.2 °F87 %29.82 in10.0 miSSE (150°)8.1 mph0.01 inOvercast
7:53 AM44.1 °F39.0 °F82 %29.83 in10.0 miSouth (170°)4.6 mph0.01 inOvercast
8:00 AM44.6 °F39.2 °F81 %29.82 in10.0 miCalmOvercast
8:45 AM44.6 °F39.2 °F81 %29.83 in2.0 miSSE (150°)9.2 mph0.14 inRainRain
8:53 AM44.1 °F41.0 °F89 %29.83 in3.0 miSSE (160°)11.5 mph17.3 mph0.17 inRainRain
9:01 AM44.6 °F41.0 °F87 %29.81 in2.5 miSSE (150°)11.5 mph0.05 inRainRain
9:11 AM44.6 °F41.0 °F87 %29.82 in4.0 miSSE (160°)10.4 mph0.08 inRainRain
9:53 AM46.0 °F43.0 °F89 %29.77 in4.0 miSSE (160°)19.6 mph27.6 mph0.20 inRainLight Rain
10:53 AM46.9 °F44.1 °F90 %29.73 in10.0 miSSE (160°)17.3 mph31.1 mph0.06 inOvercast
11:30 AM48.2 °F44.6 °F87 %29.71 in10.0 miSSE (150°)19.6 mph28.8 mphMostly Cloudy
11:53 AM48.9 °F44.1 °F83 %29.69 in10.0 miSSE (150°)19.6 mph29.9 mphOvercast
12:53 PM48.9 °F45.0 °F86 %29.63 in10.0 miSSE (150°)15.0 mph25.3 mphOvercast
1:36 PM50.0 °F46.4 °F87 %29.63 in6.0 miSouth (170°)12.7 mph19.6 mphOvercast
1:53 PM50.0 °F46.9 °F89 %29.63 in5.0 miSouth (170°)10.4 mphOvercast
2:21 PM50.0 °F48.2 °F94 %29.62 in2.0 miSouth (170°)11.5 mph18.4 mph0.00 inRainLight Rain
2:53 PM50.0 °F48.0 °F93 %29.62 in2.5 miSouth (170°)9.2 mph0.01 inRainLight Rain
3:01 PM50.0 °F48.2 °F94 %29.61 in3.0 miSSE (160°)9.2 mph0.00 inRainLight Rain
3:08 PM51.8 °F48.2 °F88 %29.61 in2.5 miSSE (160°)8.1 mph0.00 inRainLight Rain
3:53 PM52.0 °F50.0 °F93 %29.62 in4.0 miSSE (160°)10.4 mph18.4 mph0.00 inOvercast
4:04 PM53.6 °F50.0 °F88 %29.62 in10.0 miSSE (160°)10.4 mphOvercast
4:41 PM55.4 °F51.8 °F88 %29.62 in10.0 miSouth (170°)10.4 mphScattered Clouds
4:53 PM55.9 °F51.1 °F84 %29.63 in10.0 miSouth (180°)10.4 mph18.4 mphScattered Clouds
5:53 PM54.0 °F50.0 °F86 %29.64 in10.0 miSouth (170°)10.4 mphScattered Clouds
6:53 PM53.1 °F50.0 °F89 %29.66 in10.0 miSouth (170°)9.2 mphScattered Clouds
7:53 PM55.0 °F42.1 °F62 %29.68 in10.0 miSW (220°)11.5 mph18.4 mphClear
8:53 PM55.0 °F30.0 °F38 %29.70 in10.0 miSW (230°)11.5 mph20.7 mphClear
9:53 PM54.0 °F28.9 °F38 %29.71 in10.0 miWSW (240°)19.6 mph31.1 mphClear
10:53 PM52.0 °F28.9 °F41 %29.73 in10.0 miWSW (240°)16.1 mph25.3 mphClear
11:53 PM50.0 °F28.9 °F44 %29.77 in10.0 miWSW (250°)20.7 mph39.1 mphClear
Hourly data recorded from KCPS, located miles away from St. Louis - Gateway Arch, Missouri







STORIES FROM OUR PARTNERS